Flag for Austria Past Weather in Waidhofen an der Ybbs, Lower Austria, Austria — Yesterday and Last 2 Weeks

Now
60 °F

Cool.


Feels Like: 60 °F
Forecast: 51 / 74 °F
Wind: 3 mph from West

Location: Amstetten

Current Time: Jun 27, 2016 at 11:41:04 AM

Latest Report: Jun 27, 2016 at 11:00 AM


Visibility: N/A

Pressure: 30.16 "Hg

Humidity: 87%

Dew Point: 56 °F

Location of Waidhofen an der YbbsLocation

Past Weather in Waidhofen an der Ybbs — Graph

°F

Waidhofen an der Ybbs Temperature Yesterday

Maximum temperature yesterday: 78 °F (at 5:00 PM)
Minimum temperature yesterday: 65 °F (at 3:00 AM)
Average temperature yesterday: 69 °F

High & Low Weather Summary for the Past Weeks

 TemperatureHumidityPressure
High93 °F (Jun 25, 4:00 PM)100% (Jun 20, 11:00 PM)30.29 "Hg (Jun 20, 11:00 PM)
Low52 °F (Jun 21, 6:00 AM)36% (Jun 25, 4:00 PM)29.47 "Hg (Jun 16, 7:00 PM)
Average67 °F76%29.93 "Hg
* Reported Jun 12 10:00 AM — Jun 27 10:00 AM, Waidhofen an der Ybbs, Weather by CustomWeather, © 2016

Note: Actual official high and low records may vary slightly from our data, if they occured in-between our weather recording intervals... More about our weather records

Advertising

Waidhofen an der Ybbs Weather History for the Previous 24 Hours

Scroll right to see more
 ConditionsComfort  
Time TempWeatherWind HumidityBarometerVisibility
10:00 AM
Mon, Jun 27
59 °FCool.2 mph94%30.16 "HgN/A
9:00 AM57 °FFog.5 mph96%30.16 "HgN/A
8:00 AM57 °FRain. Overcast.3 mph97%30.14 "HgN/A
7:00 AM57 °FFog.5 mph98%30.12 "HgN/A
6:00 AM57 °FFog.5 mph99%30.09 "HgN/A
5:00 AM58 °FCool.5 mph99%30.09 "HgN/A
4:00 AM58 °FFog.5 mph98%30.08 "HgN/A
3:00 AM59 °FSprinkles. Overcast.3 mph97%30.07 "HgN/A
2:00 AM60 °FCool.5 mph97%30.07 "HgN/A
1:00 AM60 °FFog.3 mph98%30.08 "HgN/A
12:00 AM62 °FSprinkles. Overcast.5 mph85%30.08 "HgN/A
11:00 PM
Sun, Jun 26
66 °FFog.3 mph82%30.05 "HgN/A
10:00 PM66 °FMild.3 mph85%30.04 "HgN/A
9:00 PM67 °FMild.3 mph80%30.03 "HgN/A
8:00 PM71 °FMild.2 mph67%29.99 "HgN/A
7:00 PM73 °FMild.2 mph61%29.98 "HgN/A
6:00 PM75 °FMild.2 mph57%29.98 "HgN/A
5:00 PM78 °FWarm.2 mph48%29.96 "HgN/A
4:00 PM77 °FMild.2 mph52%29.98 "HgN/A
3:00 PM75 °FMild.2 mph54%30.01 "HgN/A
2:00 PM74 °FMild.1 mph56%30.03 "HgN/A
1:00 PM72 °FMild.2 mph58%30.04 "HgN/A
12:00 PM70 °FMild.2 mph67%30.05 "HgN/A
11:00 AM67 °FMild.2 mph73%30.05 "HgN/A
Weather by CustomWeather, © 2016

See weather overviewHow to use our weather pages